Theta_e
314 314 315 314 314 313 312 312 311 310 309 313 310 309 311 307 302 312 315 313 309 304 298 301 299 296 297 299 299 299 297 296 298 298 298 296 297 297 296 294 295 295 295 295 294 295 292 293 291 293 294 295 297 298 299 299 297 297 295 295 298 305 294 291 290 293 294 295 297 297 298 296 295 295 296 295 293 293 293 294 297 295 294 296 296 293 294
314 314 314 314 313 312 312 311 311 311 309 308 308 311 307 308 306 309 316 314 309 303 295 294 296 297 298 298 296 299 298 297 297 296 298 296 296 295 295 297 298 295 298 297 293 295 291 294 294 293 295 295 298 298 299 303 300 300 295 294 295 292 292 293 288 288 290 293 295 294 296 296 293 292 294 295 296 295 294 297 299 294 291 292 296 290 293
314 314 314 314 313 312 311 311 311 311 310 309 310 311 308 308 307 309 312 312 308 299 299 298 296 296 296 296 295 296 297 298 297 297 296 299 297 296 295 295 297 297 298 296 297 297 295 292 295 294 295 295 300 299 298 303 302 304 306 302 299 295 291 292 287 285 283 283 284 287 290 291 293 294 294 294 294 294 295 293 295 290 293 294 293 291 299
314 314 314 313 313 312 312 312 311 311 309 306 313 309 307 302 299 302 305 307 305 303 304 301 298 297 297 296 295 296 295 297 299 299 297 298 299 298 298 298 299 297 297 295 294 295 297 295 294 295 294 296 298 298 298 300 303 304 307 303 301 294 293 292 291 290 289 290 290 290 294 292 289 290 292 292 294 295 295 296 295 291 293 293 294 297 299
315 314 314 313 313 312 312 311 311 311 308 308 312 308 306 305 300 299 298 304 303 299 302 300 300 297 299 295 295 294 295 296 297 300 296 298 297 298 298 296 295 295 296 294 294 295 295 297 296 294 294 296 297 299 298 300 303 307 301 303 298 296 291 291 293 291 291 292 291 292 293 290 290 290 290 292 293 294 297 294 291 296 295 290 295 301 301
315 314 314 314 313 312 312 312 311 310 308 307 314 308 307 300 300 303 304 295 294 297 297 300 300 300 299 296 297 294 294 295 294 298 298 298 299 296 298 298 296 296 295 295 292 293 294 295 292 295 295 295 297 296 299 298 301 302 298 300 297 294 290 291 292 290 291 291 292 292 292 291 291 291 290 291 293 295 294 295 296 295 294 292 298 302 301
314 314 314 314 313 313 313 312 311 310 308 309 316 308 305 306 304 304 305 298 298 299 299 300 299 299 301 298 297 294 295 293 295 295 296 297 297 298 293 294 296 297 297 296 294 295 291 291 294 294 294 294 295 293 296 298 301 299 298 298 299 296 291 291 292 290 291 291 292 292 291 290 291 292 293 293 294 295 297 301 303 300 299 301 302 302 301
314 314 314 314 314 313 314 312 311 310 307 314 312 306 305 304 303 301 304 305 303 303 299 299 300 297 299 296 296 295 295 294 296 297 296 294 295 299 295 295 297 297 297 299 294 294 296 296 293 295 295 294 296 295 295 295 299 299 296 297 298 295 291 293 292 290 289 291 292 292 291 290 290 292 294 295 296 297 298 300 303 304 302 302 302 301 301
314 314 314 314 314 313 314 313 311 310 309 316 310 308 308 306 307 308 304 299 300 303 298 299 299 297 299 296 297 297 295 295 297 296 298 296 295 297 295 297 297 298 298 297 296 298 299 299 297 299 297 293 298 295 295 298 295 297 297 297 297 297 293 293 291 288 287 290 290 291 291 290 290 291 293 294 294 295 297 296 302 302 300 301 301 300 299
314 314 314 314 314 313 313 312 312 309 310 310 310 307 309 308 307 307 306 299 301 298 298 297 298 295 297 299 298 297 296 298 298 295 298 299 300 300 299 298 298 296 297 296 298 300 300 300 301 301 301 300 300 299 299 299 297 296 296 297 295 295 293 290 289 286 286 290 290 290 289 289 287 288 291 295 297 301 302 303 305 304 304 299 298 300 305
314 314 314 314 314 315 315 314 313 310 312 311 311 308 309 308 307 308 305 299 299 298 298 298 298 298 298 299 298 299 298 298 299 294 295 299 298 299 300 299 298 296 297 299 303 303 303 302 302 302 301 300 300 299 299 299 299 298 297 296 295 296 294 291 293 286 287 289 289 290 287 281 283 294 296 296 295 297 298 299 301 304 306 303 305 306 308
314 314 314 314 314 314 315 315 313 310 309 307 311 310 310 309 305 306 306 298 296 299 299 297 297 299 299 299 299 298 298 298 298 300 297 298 299 300 300 300 301 295 302 306 305 304 304 304 303 303 301 300 300 299 299 298 299 302 300 296 295 294 294 292 293 288 286 289 289 286 280 282 292 295 298 299 298 299 301 301 302 304 305 306 305 305 306
314 314 314 314 314 314 315 315 313 311 309 312 314 311 311 310 307 306 306 302 297 299 298 298 299 299 299 300 299 299 299 299 300 302 301 300 300 301 302 301 300 301 306 304 303 303 298 296 296 297 296 298 298 298 298 297 297 299 299 300 297 294 293 293 290 291 290 287 286 278 281 290 293 296 299 302 301 304 302 299 300 301 302 304 303 304 306
314 314 313 314 314 314 314 315 314 313 310 310 314 312 312 310 311 309 307 303 298 300 298 298 299 299 300 300 300 300 300 300 301 302 300 302 301 301 303 304 304 306 306 305 302 300 295 296 292 293 292 294 294 293 295 297 298 297 298 298 299 298 296 294 289 292 284 287 286 285 290 289 292 294 296 299 296 299 298 292 297 299 302 303 303 304 305
313 314 314 313 314 314 314 314 315 314 312 308 314 313 313 312 311 309 302 307 300 299 298 296 299 300 300 299 300 299 299 299 299 299 301 302 302 303 304 306 308 306 305 303 299 299 295 294 289 288 289 288 284 287 294 292 297 297 297 298 299 301 294 296 290 288 290 286 284 285 285 282 288 297 300 300 301 301 301 296 295 300 301 303 303 302 303
313 313 313 313 314 314 314 314 314 314 312 309 313 311 313 311 308 310 308 308 304 295 299 302 303 301 300 300 299 299 298 299 299 299 300 301 302 304 306 307 307 307 304 301 300 297 294 291 287 288 286 288 290 289 287 292 292 296 297 296 297 296 298 297 292 291 288 287 284 284 281 285 294 297 299 301 301 301 302 294 289 299 300 300 301 300 301
313 313 313 313 313 313 314 314 314 313 312 309 311 311 314 313 313 313 311 308 306 299 301 303 303 303 301 300 300 300 300 298 300 297 296 298 301 301 304 307 308 307 303 300 299 296 293 290 289 290 290 292 288 288 291 290 289 290 295 296 295 294 294 293 290 289 289 288 285 283 288 287 294 298 299 300 302 301 298 284 286 297 300 300 300 299 300
313 313 313 313 313 313 313 313 313 314 312 310 312 314 314 315 312 311 312 307 305 302 305 304 303 301 300 302 300 300 301 300 300 301 299 299 300 302 302 304 302 303 305 299 298 293 291 291 288 288 287 293 293 292 285 290 288 288 289 291 290 291 292 292 288 289 290 288 287 288 290 295 299 299 301 301 302 299 288 283 294 299 300 300 300 300 300
313 313 313 313 313 313 313 313 313 313 313 308 311 312 315 314 314 311 310 304 305 300 304 305 307 305 304 304 304 304 303 303 303 298 298 297 301 302 302 303 303 299 302 297 296 293 291 290 293 291 289 291 292 288 292 287 288 290 290 287 288 289 292 292 290 288 288 289 286 287 291 297 300 301 301 303 297 287 287 296 299 301 300 301 301 300 302
312 313 313 313 312 313 313 313 313 313 313 310 310 313 314 313 314 313 312 307 301 305 306 306 307 306 306 306 303 302 302 303 303 300 298 295 302 302 301 297 302 302 298 300 292 293 291 289 291 292 290 291 292 295 291 291 294 288 289 293 290 290 288 287 288 290 289 289 287 285 281 295 300 300 298 300 292 295 297 300 301 301 301 300 301 301 302
312 312 312 312 312 312 313 313 312 312 313 312 308 311 313 314 314 315 313 312 308 305 305 305 306 308 308 308 308 308 307 303 303 301 302 302 304 301 291 293 299 299 296 296 290 291 293 290 292 291 293 292 293 292 288 290 291 294 294 292 292 296 289 288 290 293 286 286 284 285 294 298 300 300 295 299 300 301 302 301 299 301 301 301 301 302 303
312 312 312 312 312 312 313 313 312 312 313 312 308 310 312 313 311 313 313 312 310 308 308 308 309 310 311 312 312 311 310 309 309 309 304 302 303 302 302 303 302 302 301 300 295 294 295 294 295 292 290 292 294 291 292 288 286 292 296 294 287 297 293 295 290 295 291 290 292 297 299 300 301 301 299 301 302 303 303 302 301 300 301 303 302 302 303
312 312 312 311 311 312 313 313 312 312 312 313 311 310 309 308 310 313 313 311 312 311 310 311 310 311 313 314 316 316 315 315 313 310 310 305 302 303 303 303 302 305 303 302 299 298 298 297 293 296 293 294 293 291 290 291 289 292 291 298 296 298 299 299 297 295 298 299 299 300 300 299 300 300 301 300 301 303 303 302 301 302 302 303 302 303 303
311 311 311 311 311 312 312 313 312 312 311 312 312 309 307 308 309 311 312 308 307 308 307 307 307 306 306 308 311 316 315 314 314 314 315 313 303 302 304 305 307 305 305 307 306 301 299 299 296 297 292 296 296 292 289 287 291 295 293 292 296 298 298 297 294 297 293 289 298 297 299 300 300 300 301 301 302 303 303 302 302 302 303 303 304 304 304
311 311 311 311 311 311 312 312 312 311 311 311 313 313 312 310 311 310 310 307 307 305 300 305 305 307 310 313 314 312 314 316 319 315 313 312 310 305 303 308 310 306 306 306 304 303 301 297 295 295 291 298 297 291 296 291 291 296 291 294 294 293 300 296 296 295 293 293 298 299 301 302 300 300 299 299 301 302 303 303 303 303 304 304 304 305 304
311 311 311 311 311 311 312 312 312 311 311 311 311 309 308 308 310 311 312 310 308 306 301 300 304 310 311 311 309 311 313 314 314 314 313 313 313 312 311 309 309 311 308 306 306 303 301 300 299 298 294 294 300 294 294 296 296 297 294 295 299 299 299 293 296 294 297 298 298 298 298 298 299 300 301 302 302 302 302 303 303 303 303 304 305 306 305
311 311 311 310 310 311 311 311 311 311 311 310 310 311 310 310 311 309 310 309 305 301 303 303 306 307 309 307 311 313 314 314 313 313 313 313 312 311 311 311 309 308 307 305 306 304 302 300 298 296 298 297 300 297 298 295 295 295 293 297 299 297 294 296 294 292 291 292 296 299 292 293 298 300 301 301 303 302 302 303 303 303 303 304 303 304 306
311 310 310 310 310 310 311 311 311 310 312 312 312 312 312 309 310 311 311 310 308 302 301 302 304 306 310 305 311 312 313 313 313 312 311 312 312 311 309 309 309 306 306 304 301 301 302 298 298 302 301 302 297 296 297 299 297 295 295 296 298 296 299 295 292 292 292 299 301 301 300 300 300 301 302 303 303 303 302 302 302 303 304 305 304 303 303
310 310 310 310 310 310 310 311 311 311 311 311 311 309 309 310 312 311 311 313 313 308 305 305 308 306 300 304 312 312 314 313 312 311 310 310 310 310 309 310 310 310 308 307 305 304 302 302 305 301 299 304 299 295 295 292 292 292 297 301 299 302 303 300 300 302 301 301 303 303 302 299 300 301 302 303 304 303 303 303 304 304 305 305 304 304 303
310 310 310 309 309 310 310 310 310 311 312 311 308 307 308 308 310 310 311 312 312 312 303 300 298 302 309 309 309 311 311 314 310 310 310 309 309 310 311 310 308 310 307 306 304 299 302 303 303 304 303 306 299 297 293 294 293 296 303 302 302 303 302 303 305 301 300 304 303 304 304 303 304 304 304 305 305 305 304 304 304 305 305 306 305 305 305
310 310 310 309 309 309 310 310 310 311 311 309 307 307 307 305 309 312 311 312 313 311 307 305 300 306 305 309 308 308 309 312 309 310 311 312 311 312 313 313 311 310 302 302 301 302 303 300 301 301 303 303 302 295 293 292 291 294 298 301 303 303 302 302 304 304 303 301 303 304 304 304 304 304 303 304 306 306 306 305 306 306 306 306 305 305 305
310 310 309 309 309 309 310 310 310 310 311 308 306 307 308 309 311 311 312 312 313 310 305 300 301 301 300 305 309 310 310 313 310 310 311 313 309 312 310 309 307 310 306 302 303 302 301 304 302 300 299 304 302 296 295 291 290 291 301 301 304 304 305 304 302 301 301 302 301 299 300 301 303 302 302 305 305 306 305 305 306 306 306 306 306 306 306
310 310 310 310 310 310 310 310 310 310 310 311 311 311 310 310 310 311 313 314 312 310 309 303 298 300 299 302 307 309 312 311 309 309 308 311 308 309 306 310 309 308 310 304 298 299 304 302 301 298 302 305 298 297 292 291 293 300 302 303 304 304 303 303 302 301 301 302 304 300 299 300 303 305 306 307 306 306 306 305 306 307 306 305 304 305 305
309 310 311 311 310 310 310 310 311 311 311 310 309 310 313 311 311 310 313 314 311 311 310 303 299 298 299 308 301 309 312 306 305 307 304 309 310 308 306 306 307 304 307 302 303 302 303 303 299 299 301 298 301 297 290 295 301 302 303 304 304 304 304 302 301 299 300 300 302 303 305 306 306 306 305 304 305 306 307 307 306 305 304 303 303 303 303
310 311 311 311 311 311 311 311 311 309 307 306 309 313 313 311 311 312 312 314 307 304 304 304 303 297 297 299 298 302 311 308 304 308 305 305 310 305 305 302 304 299 301 308 302 301 299 300 305 297 294 300 295 289 291 297 300 302 302 302 303 303 302 300 300 301 301 300 300 300 302 303 303 303 303 305 306 306 305 306 306 304 303 303 302 303 303
311 312 312 312 313 312 312 312 311 309 310 311 312 315 315 313 313 314 315 315 312 304 302 302 302 298 298 294 295 304 312 305 307 307 305 306 305 307 304 301 296 302 308 303 298 300 298 305 300 292 299 292 290 292 297 301 301 302 302 303 304 303 302 302 302 300 301 302 301 301 301 302 302 304 306 306 305 305 306 305 305 305 303 302 302 303 303
311 313 313 312 311 311 310 310 311 311 312 314 316 316 316 316 316 315 314 313 316 316 305 303 299 300 301 300 303 307 307 300 307 303 305 303 301 304 299 296 295 303 302 299 299 298 301 307 298 291 291 290 293 302 303 303 302 302 302 304 305 306 304 304 305 304 302 302 302 301 301 302 303 304 304 305 306 306 304 304 304 303 302 301 302 302 302
312 313 312 310 312 310 309 311 312 315 315 316 316 314 313 314 306 307 309 306 310 312 307 306 300 303 305 301 298 309 305 302 306 301 302 304 301 300 304 300 300 301 292 295 298 303 302 299 295 291 293 299 302 303 303 303 303 304 304 304 305 306 306 305 304 302 301 299 299 300 301 301 302 304 303 304 306 305 305 305 305 305 304 303 303 303 303
311 310 310 311 311 308 307 311 318 317 316 317 316 310 307 309 306 302 303 305 307 302 307 303 300 304 302 298 301 309 305 303 301 301 298 304 300 296 302 295 300 298 292 293 296 303 293 294 294 292 291 297 298 301 303 303 304 304 305 306 306 306 306 305 305 303 302 302 303 303 303 302 302 303 305 305 306 305 305 305 305 305 304 304 303 304 303
310 309 310 311 310 311 316 317 317 316 315 308 310 307 302 307 301 295 306 297 296 303 305 300 305 304 304 301 301 302 311 304 299 299 299 301 306 297 300 299 298 295 289 289 293 300 292 288 291 289 289 297 299 303 303 303 303 305 305 306 306 306 306 305 305 306 306 306 306 306 306 305 305 304 306 306 305 304 304 305 305 305 305 304 304 304 303
308 310 310 309 310 312 313 314 316 314 309 305 305 304 301 294 303 304 302 298 297 300 307 305 305 301 304 304 302 300 308 311 306 306 303 298 306 303 297 293 300 292 289 288 296 297 294 290 288 287 292 300 301 301 302 303 304 305 306 306 306 306 307 306 307 307 306 305 305 306 306 306 306 306 305 306 306 305 305 305 305 305 305 304 304 303 304
309 310 310 310 310 310 312 312 311 307 307 308 299 291 295 299 302 302 302 296 298 303 304 304 301 303 304 305 304 305 306 312 308 306 301 296 301 298 295 296 295 290 287 295 299 296 292 286 286 288 296 300 302 302 302 303 304 304 305 306 305 306 306 306 306 306 306 306 306 306 307 306 306 306 306 306 306 306 306 306 305 305 305 305 305 305 304
308 309 310 310 311 310 312 299 306 306 293 293 291 290 295 292 297 298 300 304 308 304 305 309 309 309 310 310 307 307 306 309 304 302 300 297 302 300 295 292 291 286 292 298 296 291 287 286 285 292 300 301 302 302 303 303 304 304 305 305 303 303 304 305 305 306 306 306 306 307 307 307 306 307 308 307 307 306 307 307 306 305 305 305 305 304 304
311 310 309 309 306 307 308 291 306 302 294 292 291 289 293 294 298 300 298 302 304 305 308 304 306 304 301 309 304 304 305 305 306 303 300 301 298 293 292 288 291 296 299 294 291 286 288 292 294 298 302 302 302 303 303 304 304 304 304 303 302 300 299 300 303 304 304 304 304 305 305 306 306 307 307 307 307 306 306 307 307 306 306 305 304 304 305
308 303 298 302 297 300 295 290 298 295 291 294 296 298 297 294 297 299 299 306 305 303 307 307 306 304 303 307 307 306 304 301 307 299 293 298 294 294 291 291 296 296 292 288 289 289 288 289 298 300 301 300 302 302 303 303 303 303 303 303 302 297 297 296 300 302 303 303 302 301 301 303 303 304 306 306 307 307 306 306 307 305 305 304 304 304 305
303 294 295 293 291 294 294 291 290 291 299 299 299 303 302 303 303 303 306 307 305 306 305 306 307 305 303 307 302 302 303 302 299 299 299 298 292 290 298 299 297 291 289 288 286 286 288 294 296 298 299 300 300 302 303 304 304 304 303 298 298 303 303 302 303 303 303 303 301 301 303 303 302 303 304 306 307 307 307 307 307 306 306 305 305 305 304
302 302 294 295 292 294 299 293 295 300 300 302 302 305 307 307 308 307 309 306 306 308 307 308 307 307 303 302 302 301 303 302 298 300 299 294 293 294 300 294 288 290 285 284 286 288 292 295 296 297 298 299 299 300 301 301 302 303 303 303 303 303 305 304 304 304 305 304 303 303 303 303 303 304 304 305 306 307 307 307 306 306 306 305 306 306 304
292 296 301 294 291 295 295 301 304 304 304 303 307 307 309 307 305 306 309 308 308 308 307 306 303 304 301 304 303 298 300 301 298 298 299 296 297 292 288 289 289 291 291 288 288 292 293 295 297 297 297 298 298 299 299 300 300 300 300 300 301 301 302 303 304 304 304 304 304 304 304 304 304 303 298 299 303 305 306 307 306 306 306 305 306 306 304
306 298 296 293 300 300 302 304 304 303 305 304 305 305 306 306 306 308 311 310 308 309 309 306 305 302 299 302 298 297 294 299 292 290 297 294 289 285 286 284 286 285 292 292 292 293 295 296 298 298 299 299 300 299 299 299 299 299 299 299 300 300 301 301 302 303 303 303 303 303 303 304 305 303 302 303 302 303 305 307 306 306 306 305 305 305 303
296 296 299 297 301 302 305 304 304 302 304 307 308 308 308 306 306 310 311 309 308 308 306 305 304 300 299 296 291 293 292 296 295 293 292 290 291 291 289 285 287 287 288 292 293 294 297 297 298 298 299 299 300 298 298 298 300 300 300 299 300 300 301 300 300 300 301 301 302 302 303 303 303 304 303 302 303 305 306 305 305 305 305 305 306 305 303
302 296 298 308 303 303 303 300 300 301 303 306 306 307 307 306 307 309 311 309 307 305 305 300 299 298 294 292 289 287 290 297 294 293 291 290 294 292 288 286 289 291 291 292 295 296 297 298 297 298 297 298 298 298 299 299 299 300 300 301 300 300 301 300 300 300 300 301 302 301 302 302 303 304 305 306 305 304 304 304 305 305 304 306 306 304 302
295 295 303 307 308 307 306 306 307 306 307 308 307 308 307 307 311 312 309 308 307 302 300 301 299 294 289 289 293 296 298 295 292 293 290 293 295 292 292 292 292 293 294 295 296 297 298 298 298 298 297 297 298 298 299 299 299 299 299 299 299 300 300 300 300 300 300 300 300 300 301 302 304 304 304 304 303 302 301 301 304 304 305 305 305 304 303
Wind_Speed
22 21 22 22 24 24 25 24 24 23 21 6 4 2 3 4 2 6 7 9 4 11 6 4 4 4 2 2 5 3 5 4 4 7 8 4 4 6 9 5 1 5 2 4 5 3 6 5 5 3 4 7 7 6 9 3 1 1 2 2 2 1 3 6 6 3 2 6 4 2 6 2 3 5 7 6 4 4 3 3 4 4 4 5 4 3 6
20 20 21 22 23 24 25 24 23 21 15 2 4 3 3 1 1 4 5 11 3 6 3 4 5 5 4 5 5 4 6 9 10 8 9 6 5 5 4 4 8 5 5 4 3 3 4 4 3 4 1 4 3 6 10 8 4 4 2 1 1 2 1 0 6 3 2 2 3 2 1 4 4 4 6 7 6 3 1 1 1 3 3 3 3 6 5
19 19 20 21 23 24 24 24 23 21 14 2 1 2 1 1 1 2 6 10 7 5 1 4 5 4 4 5 8 5 5 5 5 7 8 6 5 1 6 4 3 5 3 5 4 7 4 5 4 2 2 3 3 8 10 9 7 6 3 2 0 3 2 1 3 5 5 5 5 4 3 3 2 2 6 8 10 10 2 3 0 2 1 1 3 6 5
18 19 20 21 23 24 24 24 23 21 15 2 0 2 0 4 2 5 5 7 6 5 2 2 3 4 1 6 4 3 4 2 5 4 7 7 6 8 1 2 5 5 3 7 7 8 9 4 4 1 3 2 3 4 8 8 8 7 10 7 0 3 2 2 2 3 2 4 4 2 1 1 1 4 6 8 8 7 2 1 2 4 5 7 6 6 8
18 19 20 20 22 24 25 25 24 22 13 3 3 3 3 2 4 3 3 4 6 4 6 4 3 2 1 2 3 5 4 2 4 8 3 8 6 4 8 4 2 3 4 5 7 5 7 8 7 5 3 1 1 4 6 6 14 12 4 7 2 3 4 4 7 10 7 5 5 3 2 3 1 4 6 7 8 8 6 3 5 1 5 5 2 2 5
19 21 21 20 21 23 24 25 25 23 17 2 1 4 4 3 1 0 1 1 2 4 7 7 5 5 2 3 1 4 4 6 3 3 5 1 7 2 3 9 7 4 4 3 4 2 4 4 3 2 2 1 2 2 7 8 8 8 5 6 3 2 3 1 4 7 5 3 5 3 2 3 2 4 4 5 6 7 8 7 4 1 2 5 8 6 7
20 21 22 21 20 22 23 25 26 24 21 4 1 5 2 3 2 1 1 1 2 2 4 4 5 9 6 3 5 4 6 6 4 3 3 3 5 4 3 5 7 5 2 1 3 0 4 3 2 0 2 3 1 2 0 4 8 6 4 5 2 1 4 3 3 8 6 5 3 2 4 3 3 5 5 3 4 6 6 7 7 8 10 12 11 10 8
19 20 21 21 19 21 22 24 26 25 21 6 8 5 1 2 1 3 1 4 3 5 2 3 4 6 4 3 3 2 3 3 2 3 4 3 4 4 8 4 5 5 5 3 4 2 4 3 3 1 1 2 1 2 2 2 3 5 4 2 3 2 4 5 4 5 4 2 2 1 4 2 5 5 4 4 5 6 6 6 8 9 10 9 10 10 7
18 19 20 19 18 19 21 22 25 26 18 5 6 4 4 1 0 0 1 3 4 4 3 2 3 3 4 4 2 2 2 5 1 4 2 3 3 2 7 7 7 6 8 9 7 2 3 3 5 4 1 2 1 2 2 1 2 4 2 3 2 2 3 1 3 5 4 1 2 2 3 2 4 5 5 5 4 5 4 3 3 2 7 7 7 5 4
17 18 19 19 17 18 19 19 22 24 18 5 2 4 1 1 1 1 1 3 3 3 2 1 1 4 2 2 2 1 1 1 2 6 4 6 6 4 8 2 5 3 5 6 3 2 3 1 3 2 2 3 2 2 2 1 2 1 2 2 1 1 5 6 5 4 4 3 2 3 1 4 3 3 3 2 5 6 6 5 4 4 1 3 3 4 5
16 17 17 18 17 17 18 18 19 19 11 6 3 2 2 1 0 1 1 3 2 3 1 3 3 2 1 2 2 2 4 3 2 1 2 2 4 3 2 3 3 4 4 2 3 2 1 3 2 1 1 2 3 2 1 1 2 2 2 1 1 1 4 3 0 3 5 5 0 1 3 5 2 5 2 1 3 3 5 6 5 5 1 4 4 6 4
15 15 16 16 15 15 16 16 17 17 10 2 1 3 1 1 1 1 2 3 2 1 2 2 2 1 2 2 1 3 4 4 3 2 5 3 3 2 3 2 1 3 2 2 1 4 5 4 4 3 4 5 3 3 1 2 1 2 2 1 2 3 3 3 0 3 4 4 1 3 5 4 5 1 1 1 1 2 7 7 6 5 5 6 6 6 4
14 14 14 15 15 14 14 14 15 15 13 3 2 4 2 1 1 1 3 3 2 2 1 2 2 1 0 1 5 4 2 1 1 2 5 4 4 3 2 2 2 2 2 2 1 4 3 3 4 3 5 4 5 6 7 5 5 2 2 1 3 3 3 4 2 2 2 1 4 2 1 4 2 2 2 2 4 7 10 7 5 6 5 3 4 4 4
14 13 13 13 14 14 14 13 13 13 14 7 4 4 2 1 1 2 2 2 2 1 1 0 0 1 2 3 3 2 1 4 3 1 4 2 3 4 2 0 2 2 1 3 4 3 4 2 4 3 3 1 2 3 3 1 4 5 2 1 2 3 2 3 3 1 3 2 5 1 2 2 2 3 3 4 2 6 4 3 4 2 3 3 3 3 3
13 13 12 12 13 13 13 12 12 12 13 9 1 2 4 3 1 3 1 1 3 1 1 0 2 1 0 1 1 2 2 1 3 4 2 1 1 2 1 1 1 0 4 3 2 2 2 2 3 5 4 5 4 2 1 1 2 3 3 1 4 4 6 2 3 4 3 4 4 3 4 6 5 2 2 1 2 1 1 1 3 2 2 2 2 2 3
13 12 11 11 11 12 13 13 12 11 13 9 2 2 3 4 1 1 2 2 2 1 1 3 2 2 2 2 1 1 2 2 1 1 2 1 1 1 2 1 1 2 4 4 2 2 1 2 2 3 3 4 2 1 3 0 2 3 4 4 6 2 1 2 6 2 5 5 5 4 3 2 4 8 5 3 1 3 3 2 4 5 1 2 2 2 3
12 12 11 11 10 11 11 12 12 10 10 11 3 1 3 5 3 2 0 1 1 2 1 1 2 2 2 2 1 1 1 2 2 2 2 2 1 2 2 1 2 2 3 2 1 1 2 4 1 1 2 0 3 1 3 1 4 3 3 4 5 5 3 4 5 5 4 4 4 3 3 1 7 8 6 4 3 5 4 5 2 7 3 1 1 3 4
12 12 11 10 10 10 10 11 12 10 10 10 3 2 2 3 3 1 2 2 1 1 2 5 4 3 2 1 1 2 2 3 2 1 0 1 1 1 1 1 2 2 2 1 0 2 2 1 2 2 2 2 1 1 2 3 5 4 3 1 2 2 3 3 7 6 5 6 4 2 3 2 4 7 5 3 5 5 5 5 4 5 2 0 2 3 3
11 11 10 10 9 9 9 10 10 11 10 10 4 1 2 4 4 1 4 2 1 1 2 2 2 1 2 3 2 3 0 2 1 2 2 2 2 1 1 2 2 1 3 3 2 2 1 2 0 1 2 3 1 0 2 2 2 2 3 2 2 0 1 1 1 5 6 5 5 4 2 3 4 4 2 3 4 5 5 4 2 3 3 2 2 3 3
10 10 10 9 9 8 8 8 9 10 10 8 6 0 1 2 5 4 2 1 0 1 1 4 5 5 5 4 4 3 2 1 1 1 2 1 2 2 2 2 2 0 1 1 2 0 1 2 2 1 1 2 1 1 2 1 1 2 2 1 3 4 5 5 6 2 1 2 5 1 4 3 1 7 3 2 6 1 3 2 3 3 1 1 2 2 3
9 9 9 9 8 7 7 8 8 8 9 6 4 2 1 1 3 4 3 2 1 1 1 1 1 3 4 4 3 1 5 2 4 1 2 1 1 1 0 0 2 1 1 2 1 2 2 3 3 1 2 1 3 3 1 2 4 1 2 2 2 2 4 2 3 3 2 5 6 3 2 6 2 3 2 3 2 2 3 2 1 2 1 2 3 3 3
8 8 9 8 7 7 6 7 7 7 7 6 5 1 1 1 1 4 2 1 2 2 1 1 1 2 4 4 3 3 3 1 3 1 3 2 1 1 2 1 2 2 2 2 2 2 1 1 2 2 3 3 1 3 1 3 2 3 1 2 2 7 3 1 1 3 5 1 1 3 2 3 2 1 2 2 3 3 3 2 0 2 0 1 3 5 5
8 8 8 7 7 6 6 6 6 5 6 4 4 3 1 4 3 5 2 1 2 2 1 2 1 4 3 6 7 8 7 4 2 2 3 2 2 2 2 3 3 1 1 1 2 1 2 4 2 1 1 4 4 3 2 3 1 3 3 5 2 1 1 2 1 2 2 4 3 3 4 4 2 2 0 1 2 4 3 1 1 1 2 2 4 6 7
7 7 7 7 6 5 5 5 5 5 5 4 2 2 1 2 4 4 1 2 1 3 1 1 2 1 2 4 2 1 2 3 7 6 1 3 4 2 1 2 2 2 2 1 1 2 3 1 1 1 3 2 4 3 3 3 5 3 2 2 3 2 4 4 4 2 2 3 5 8 9 6 5 3 2 2 2 4 3 1 2 2 3 4 4 6 7
7 7 7 6 5 5 4 4 4 4 4 4 1 1 1 1 1 4 1 2 1 1 1 2 1 1 1 3 4 3 4 2 2 6 6 7 7 6 3 2 4 2 3 4 2 4 2 2 2 3 3 3 4 3 1 3 1 5 5 2 2 4 8 6 5 4 6 2 4 6 5 5 3 3 4 5 6 5 4 3 2 3 4 4 5 5 7
8 7 6 6 5 5 4 3 3 3 3 5 4 2 2 1 1 3 1 3 3 1 1 1 1 2 2 3 1 2 1 3 4 5 7 9 9 5 3 4 2 2 3 2 3 4 3 2 1 1 2 2 3 4 2 1 3 3 4 3 1 4 9 4 6 6 6 2 5 4 3 7 7 6 6 4 5 4 5 4 4 4 4 4 5 5 7
8 8 7 6 5 4 3 2 2 3 2 1 1 1 1 2 2 2 1 1 1 1 0 2 2 3 5 8 4 2 1 2 4 6 7 7 8 5 4 3 4 3 3 3 1 1 1 1 2 4 3 1 3 1 1 2 3 3 4 3 4 5 8 4 3 5 5 6 4 10 6 5 6 8 9 8 6 4 3 3 4 4 4 4 6 6 6
8 8 7 5 4 4 3 2 2 2 1 3 2 2 2 2 1 2 2 2 2 2 2 4 4 7 6 4 2 4 3 3 4 5 6 6 7 7 7 6 3 3 2 3 2 2 2 4 4 2 1 2 3 3 2 2 1 5 9 7 9 9 8 8 8 6 6 3 5 8 4 1 4 7 8 7 6 5 5 4 4 4 3 4 6 7 8
8 7 7 5 4 3 3 2 2 2 2 4 1 1 1 2 2 3 2 1 2 2 0 5 5 3 2 3 6 4 2 2 2 4 5 5 7 6 6 5 4 3 2 1 1 1 2 1 2 3 2 3 3 2 3 5 5 9 10 8 11 6 5 11 10 7 3 2 5 7 5 4 5 7 8 7 6 5 5 4 3 4 4 5 6 6 8
7 7 6 4 3 3 3 2 1 3 2 1 0 1 1 2 2 1 3 2 2 0 3 4 2 1 2 3 3 3 5 6 2 4 5 5 5 5 6 6 2 2 3 2 1 2 1 1 1 1 0 2 3 1 2 2 6 9 1 5 10 8 8 10 8 9 6 4 5 7 5 5 5 6 5 5 6 5 4 4 3 3 4 5 6 7 7
6 5 4 4 3 3 2 1 2 3 2 1 1 1 1 0 2 0 2 3 2 1 1 1 3 4 4 1 2 4 7 5 4 4 5 6 6 5 2 1 1 4 3 2 1 1 1 3 3 2 1 2 1 2 3 4 5 4 3 6 8 9 9 11 7 2 3 3 4 4 2 4 4 3 4 6 6 7 5 4 4 4 5 6 6 7 7
5 4 4 4 4 3 2 1 1 1 1 0 1 2 2 2 2 3 2 3 2 1 2 4 2 1 3 3 2 2 2 2 2 2 2 2 5 3 3 4 3 4 4 5 4 3 4 3 2 3 2 4 3 3 3 3 7 8 3 5 5 7 7 6 4 4 1 5 9 5 5 5 5 6 3 4 6 7 6 4 3 3 3 4 6 5 6
5 4 4 3 2 1 1 1 2 2 0 3 5 5 6 6 4 1 1 3 1 0 0 1 2 2 3 2 4 1 1 2 2 1 2 2 2 2 3 1 2 2 3 2 2 3 0 3 4 4 4 7 4 3 2 6 10 10 8 6 4 5 6 4 4 6 6 6 6 6 5 7 6 8 4 3 4 5 5 4 3 2 3 5 5 5 5
3 5 3 2 2 3 4 4 2 2 0 2 1 2 1 8 7 6 2 2 1 0 0 1 3 4 4 2 2 2 4 3 1 2 0 2 1 1 2 2 1 2 3 4 0 1 1 1 2 2 4 4 4 3 4 8 9 10 8 6 6 4 3 4 5 6 7 7 3 3 2 4 4 3 2 4 5 5 4 3 3 4 4 4 6 7 7
5 2 4 6 5 4 6 3 2 2 2 1 1 1 0 4 6 7 6 1 1 1 1 1 0 4 4 3 2 1 3 2 1 2 1 1 2 0 1 2 1 2 1 1 1 2 2 2 2 3 4 2 2 3 5 9 10 8 5 6 5 3 3 3 4 5 5 4 3 3 1 3 4 3 5 6 5 4 5 5 3 3 5 4 6 7 7
2 4 4 4 3 3 2 1 2 1 1 3 2 3 4 6 8 4 4 1 1 1 2 1 1 3 1 4 4 2 2 1 1 0 2 1 2 3 3 2 2 1 2 2 1 3 2 3 3 2 2 2 4 5 7 8 9 8 7 6 5 7 7 8 6 8 6 6 6 5 4 4 6 6 5 4 4 5 5 4 3 3 4 6 7 6 6
3 4 4 2 0 1 3 3 1 1 2 1 4 9 12 9 4 2 1 2 2 1 2 3 4 4 3 3 2 2 3 3 1 1 2 0 1 3 1 1 2 1 2 2 3 3 1 2 2 2 2 3 4 5 6 7 9 10 9 7 4 5 6 4 5 6 7 7 8 7 6 6 6 4 4 5 4 3 3 5 5 5 6 6 6 6 6
4 1 1 1 0 2 2 2 2 1 1 4 5 3 3 3 2 1 0 1 1 2 2 2 5 2 2 2 4 1 2 2 0 2 0 1 1 2 2 1 1 1 3 2 0 2 2 2 3 2 5 9 10 11 10 9 9 8 8 7 5 4 5 5 6 7 8 7 6 7 5 5 5 5 5 6 6 6 6 5 4 4 4 5 5 5 7
1 1 1 1 1 3 1 2 1 3 3 2 1 2 1 1 1 0 1 1 1 2 2 3 4 3 4 4 6 2 2 2 2 0 2 2 2 1 1 2 1 2 1 3 1 1 3 2 2 2 6 4 3 3 2 5 6 4 5 4 3 3 4 5 8 10 9 8 7 9 9 7 8 8 6 6 5 4 4 5 5 4 4 4 4 5 6
2 1 2 2 2 2 0 1 2 2 1 1 1 2 1 0 1 1 1 1 2 3 2 4 2 4 6 6 5 3 2 2 2 2 2 1 1 3 1 1 1 2 2 2 0 2 2 1 0 2 4 3 3 2 5 6 6 5 3 3 3 4 5 6 7 8 9 8 6 6 8 8 8 7 6 6 5 5 5 5 5 4 4 4 4 5 5
1 2 2 2 1 1 2 3 2 1 1 2 2 1 1 1 1 0 1 2 3 2 2 3 1 2 4 4 4 4 1 1 1 1 1 2 1 1 2 1 1 2 3 2 1 2 1 1 1 3 3 1 3 4 6 6 5 4 2 3 3 3 4 6 7 7 7 7 5 5 5 7 7 7 6 7 6 6 5 5 5 5 5 5 5 4 3
2 2 2 2 0 1 1 1 0 1 2 1 1 0 0 1 1 2 3 2 1 1 3 4 3 3 2 6 4 3 2 0 1 1 1 2 1 2 1 1 0 1 2 1 2 2 1 2 3 4 4 5 4 4 4 5 4 5 4 3 2 2 3 4 5 6 7 8 7 7 6 6 7 7 6 6 6 6 5 5 5 5 5 4 3 3 3
2 2 0 1 1 1 2 0 0 1 0 1 1 1 1 0 0 1 1 2 0 2 0 1 2 0 1 2 2 1 0 1 2 2 3 0 1 1 1 1 1 2 1 3 2 2 3 3 4 4 3 3 2 4 4 4 4 4 3 3 4 4 4 4 6 5 5 6 7 7 5 6 7 7 7 7 6 6 6 6 6 5 4 3 3 2 2
1 1 1 1 1 2 1 0 1 0 0 0 0 0 1 1 1 2 2 2 2 2 3 3 2 2 3 3 2 2 2 2 1 1 1 1 1 1 1 2 3 1 1 2 2 3 4 4 5 4 3 3 3 3 3 3 3 2 0 0 2 2 3 5 5 5 5 4 4 4 3 4 5 5 5 7 8 8 7 6 5 5 4 3 3 2 1
2 2 2 0 0 0 0 1 1 1 2 2 2 1 2 2 4 2 4 1 2 2 1 2 1 2 4 2 1 1 1 0 1 1 2 2 2 2 2 2 1 2 2 2 2 3 3 6 3 3 4 5 4 3 3 3 4 4 4 4 3 3 2 4 5 3 2 3 3 5 4 3 3 5 6 7 7 7 7 6 5 5 5 4 4 3 1
2 1 1 1 2 1 0 1 0 1 3 2 3 3 4 4 4 5 2 1 3 3 4 2 2 2 3 2 2 0 2 2 2 1 1 1 2 2 1 1 1 2 2 2 3 4 3 2 4 7 9 9 7 6 5 6 6 5 4 4 4 5 3 4 5 5 5 4 5 8 8 6 5 6 7 7 7 7 6 5 5 5 5 4 3 3 2
2 1 1 0 0 0 1 1 3 2 1 2 1 3 4 3 3 5 2 2 5 3 1 0 2 2 2 2 2 1 1 1 2 1 2 2 2 0 1 3 3 2 2 2 3 3 2 5 7 6 7 7 7 6 6 6 6 6 6 5 6 6 6 5 5 5 4 4 6 6 4 6 7 7 4 2 4 5 5 5 6 6 6 5 4 3 2
0 1 0 1 2 1 2 3 1 2 2 2 0 2 2 1 2 4 3 4 3 0 2 2 2 2 2 2 1 1 1 2 2 2 2 2 0 1 0 2 3 3 2 4 2 4 4 6 4 5 4 5 5 3 4 4 4 5 5 5 6 6 6 6 5 5 4 4 5 6 6 6 6 4 6 8 7 3 5 6 7 7 5 5 5 4 4
1 1 1 2 1 1 2 1 1 2 1 1 1 1 2 3 5 6 4 2 2 2 1 2 1 1 2 2 1 1 2 2 2 0 1 1 2 2 1 4 5 5 1 3 4 4 5 5 6 6 5 5 4 4 4 4 5 6 6 6 6 7 7 7 6 5 5 4 4 5 5 5 4 5 5 6 7 9 8 6 7 6 6 6 6 6 4
0 1 1 0 2 3 2 1 2 3 0 2 2 2 2 3 5 3 2 2 1 2 2 2 1 1 1 1 1 1 1 2 1 0 2 4 3 0 1 6 3 2 4 3 3 4 5 5 5 6 6 6 7 6 7 7 7 7 6 6 5 6 6 7 8 7 6 5 5 6 7 6 6 5 7 9 9 7 7 7 7 7 7 6 6 6 5
1 0 3 2 4 1 2 2 1 3 2 1 1 5 3 4 3 2 2 2 3 2 1 1 1 0 0 0 0 1 0 2 2 2 3 4 1 2 2 4 4 3 2 3 4 5 4 4 4 5 6 6 6 7 6 7 7 7 6 6 6 6 6 6 6 6 7 6 6 5 5 6 6 7 7 7 6 5 6 7 7 7 7 7 7 6 6
0 1 2 1 4 5 3 2 1 5 3 4 7 6 5 4 2 1 1 2 2 2 2 2 1 0 1 1 1 1 1 1 1 1 4 1 0 4 3 4 3 2 2 2 1 1 2 2 3 4 5 6 7 6 7 7 7 7 7 7 7 8 8 7 7 8 8 7 7 6 5 5 6 7 7 8 9 8 7 7 7 7 6 6 6 6 6
Wind_Direction
352 348 344 342 341 341 340 342 343 346 347 356 2 258 13 30 30 298 313 360 321 75 57 31 56 59 35 238 46 15 62 20 342 14 1 34 20 43 47 12 68 35 54 79 79 48 82 10 66 119 84 59 13 315 307 287 262 13 88 240 68 229 49 85 72 95 209 237 280 303 0 339 214 46 26 23 27 344 350 14 80 106 130 152 134 86 109
351 349 346 343 341 341 341 342 344 347 8 7 295 47 87 181 348 329 326 351 309 72 92 89 78 87 60 66 80 27 66 31 23 35 21 26 20 52 30 59 37 83 35 66 81 298 117 39 76 99 320 77 327 344 3 347 53 347 60 327 68 259 67 325 122 144 179 178 165 156 143 32 49 13 13 10 16 42 356 34 294 100 28 359 170 142 136
351 351 347 344 342 342 341 342 343 349 354 60 316 65 147 136 218 244 304 357 26 75 19 120 104 81 75 62 45 13 56 24 41 39 41 23 36 247 52 16 328 65 48 82 77 39 15 121 15 88 62 76 321 360 4 354 55 44 58 51 359 52 69 300 171 174 178 187 202 181 178 25 357 4 347 25 17 7 300 155 146 100 80 319 89 104 96
353 352 349 345 343 342 342 342 344 349 355 322 239 101 301 23 75 329 9 12 37 72 4 16 82 108 124 60 25 19 82 94 27 7 57 31 53 52 26 8 24 41 59 59 36 43 27 56 148 165 110 56 38 359 341 12 33 43 56 35 18 97 85 34 311 294 300 55 69 31 325 70 59 2 9 12 8 2 352 25 99 98 134 97 43 86 126
355 355 352 347 344 344 343 343 344 348 357 10 97 56 55 133 55 347 0 304 56 52 36 16 338 83 313 78 342 28 23 312 51 2 78 11 25 60 42 8 21 30 59 74 71 21 68 59 87 34 81 68 355 304 351 6 12 355 30 6 83 96 94 41 59 74 89 107 94 97 35 82 61 355 9 8 14 359 28 53 84 11 142 91 96 170 126
357 357 354 350 346 345 345 344 345 346 351 225 303 49 343 70 133 205 307 358 5 356 38 9 51 45 12 82 329 27 34 38 51 32 64 108 17 19 33 34 36 30 58 110 100 33 60 32 75 5 39 8 50 58 27 38 348 358 41 1 54 92 101 111 106 90 85 59 91 102 85 43 32 13 7 17 13 40 57 48 52 332 326 121 147 144 109
359 359 356 353 348 346 348 346 345 349 343 342 35 99 16 62 119 102 287 95 45 326 314 344 62 59 34 85 30 58 46 65 40 359 21 39 25 355 104 10 15 29 36 65 103 34 142 101 20 69 59 38 358 111 182 64 15 19 47 39 24 126 71 105 91 113 96 71 65 23 38 73 83 48 48 40 55 64 70 70 58 79 101 113 123 112 93
360 359 357 355 350 348 350 350 348 349 346 332 73 38 360 42 22 109 29 82 82 3 360 356 21 65 348 83 8 49 24 62 39 43 22 88 53 0 85 75 50 40 65 60 85 76 10 79 131 176 155 129 344 58 6 339 24 19 39 342 40 301 117 130 137 115 102 43 353 360 32 28 99 70 75 81 101 83 72 83 84 98 100 121 122 114 94
1 359 357 356 352 351 353 354 355 350 348 63 50 60 19 76 48 280 116 56 1 340 16 15 23 74 21 64 89 93 53 85 26 76 339 25 95 107 121 113 93 44 72 79 89 98 91 65 48 150 194 35 79 321 121 317 7 5 31 9 16 326 128 82 148 136 127 162 329 36 16 91 102 95 77 70 115 105 75 96 54 94 124 142 147 132 111
1 360 358 358 356 355 356 359 1 358 343 94 56 61 3 146 14 321 285 89 1 18 312 324 231 64 10 6 40 11 57 28 284 106 46 48 39 117 136 150 101 101 88 85 99 141 193 48 354 335 341 0 38 31 79 182 353 25 33 340 25 19 142 161 167 162 135 137 277 358 261 171 188 153 92 94 90 100 98 78 60 61 51 163 164 99 97
3 1 358 358 359 357 359 3 5 7 1 50 59 57 5 343 76 128 323 91 52 32 321 33 43 64 310 22 106 61 66 65 4 66 118 44 57 35 136 130 95 83 88 70 31 344 17 34 37 53 57 18 352 15 110 174 300 327 344 94 47 122 154 122 193 196 140 165 334 270 204 201 176 77 65 247 87 136 143 110 87 71 353 90 86 103 123
4 3 359 358 1 360 0 4 7 14 29 23 69 84 357 183 323 105 81 88 74 6 44 53 359 353 95 31 10 67 74 68 66 308 106 78 91 130 110 104 184 101 30 328 70 128 139 148 115 124 62 29 55 58 59 342 60 233 270 292 138 133 132 119 334 172 153 149 192 200 221 202 79 80 100 295 115 130 117 107 80 78 81 112 111 93 70
2 4 0 359 1 3 360 5 9 12 14 0 3 64 22 244 322 57 86 93 93 350 77 69 350 336 80 98 97 78 30 314 6 78 71 105 105 94 5 49 57 80 328 24 76 133 150 79 46 31 30 56 77 88 77 53 45 54 207 260 201 152 165 125 129 93 87 197 193 219 188 57 352 74 66 116 107 125 126 108 71 37 41 67 107 87 66
357 3 2 359 2 5 3 3 9 10 11 3 35 38 6 274 297 53 53 91 92 144 38 162 334 122 87 48 57 84 124 77 54 357 105 31 94 92 85 356 8 302 148 121 67 95 109 165 120 139 88 103 125 134 35 360 42 32 53 182 260 191 111 196 152 247 210 212 203 274 43 238 113 156 168 185 169 173 210 222 140 47 33 38 74 79 48
353 359 1 360 2 4 6 2 6 9 10 4 102 46 23 10 6 119 178 17 114 104 187 121 183 182 248 69 250 138 106 89 153 87 6 280 139 63 38 33 314 262 177 194 96 28 73 146 148 144 135 178 173 137 37 51 33 55 30 150 183 189 213 173 229 180 223 185 194 200 185 210 179 140 95 350 27 23 37 327 149 159 76 53 82 53 35
350 355 359 0 2 4 5 5 2 6 9 353 89 30 47 8 289 56 81 94 144 120 147 224 113 141 127 78 348 271 154 157 88 119 138 55 20 181 166 277 326 183 84 66 54 80 51 189 147 183 171 171 62 149 173 116 164 87 64 108 136 104 356 193 229 175 178 206 220 207 194 132 100 162 167 133 138 178 165 233 232 147 142 73 13 13 14
347 351 357 359 3 3 5 5 2 4 13 9 3 17 39 9 340 334 46 49 50 42 95 116 126 117 118 137 191 153 205 167 179 177 183 172 127 326 296 38 75 52 84 109 34 153 108 81 60 65 71 348 167 126 88 228 147 140 102 115 115 155 183 188 210 211 210 208 213 225 216 166 162 155 161 156 201 184 217 271 204 151 174 167 357 336 339
346 348 353 357 0 2 4 6 5 3 9 8 0 50 28 3 10 256 31 69 103 118 181 182 168 171 204 203 175 95 117 110 91 42 65 76 285 191 39 305 163 73 273 114 121 93 83 107 164 180 144 101 348 225 208 133 175 164 161 108 156 151 160 211 226 222 195 210 230 312 238 190 161 170 169 152 196 205 239 240 95 152 166 185 301 306 322
346 346 349 354 357 358 360 5 7 4 8 4 347 217 77 3 1 54 106 78 52 112 129 172 325 267 81 71 49 138 273 328 124 170 139 183 149 42 326 66 307 200 14 133 118 105 143 108 279 294 175 143 204 188 117 190 165 75 129 145 143 176 115 152 341 231 227 215 238 246 304 53 143 142 192 209 188 211 222 77 124 150 173 197 260 290 287
344 348 346 351 355 355 356 2 5 6 3 13 2 72 38 337 10 18 10 88 45 268 211 189 182 206 180 195 159 173 159 182 360 182 178 174 127 180 194 184 145 243 133 210 125 21 237 157 137 168 178 147 164 92 211 201 39 172 197 286 227 164 193 197 201 155 56 191 232 228 250 114 116 135 146 182 238 61 72 147 147 173 213 245 246 265 292
343 346 344 346 350 351 353 359 1 4 5 20 11 329 170 70 342 18 26 155 166 264 119 166 247 240 193 221 229 247 191 243 169 211 183 26 89 228 225 274 99 170 165 186 227 162 206 154 172 174 35 266 121 214 199 142 195 197 273 182 228 113 235 187 212 211 233 197 208 218 34 111 164 215 210 117 19 70 132 135 160 140 299 308 305 283 297
341 343 342 342 346 345 348 357 357 4 3 25 11 319 202 48 16 6 348 337 234 238 350 32 304 268 245 269 276 252 253 247 188 22 154 177 155 296 359 181 167 195 136 141 110 124 192 96 97 168 181 159 177 254 116 209 207 125 191 228 211 184 236 348 263 152 235 258 16 72 157 114 125 100 42 77 96 123 143 115 186 286 200 313 286 301 310
339 339 339 339 342 339 342 353 356 359 356 23 25 20 12 342 339 345 292 250 232 256 291 261 226 242 255 250 245 247 251 262 220 195 214 170 168 196 221 216 218 176 99 246 268 42 106 168 200 104 154 201 198 159 213 272 329 168 187 201 340 26 38 128 267 208 257 264 248 136 175 207 183 172 111 285 150 151 149 157 253 205 301 300 299 309 309
336 333 335 336 339 335 333 347 352 357 356 13 56 12 1 335 318 324 57 70 26 304 166 166 256 101 73 72 66 119 189 212 223 219 224 231 228 186 205 252 32 129 246 192 348 216 141 134 84 186 244 143 156 199 203 213 223 178 208 185 218 188 168 188 227 122 184 223 155 209 205 184 211 220 228 221 203 179 173 196 224 278 288 294 292 296 299
331 328 330 332 337 326 326 341 349 347 355 344 331 9 299 251 1 355 318 298 13 12 338 327 342 45 24 316 282 258 230 223 190 196 198 213 221 230 251 120 178 259 247 158 160 117 130 164 171 179 235 151 207 247 94 267 207 163 216 202 160 203 181 217 215 174 216 266 156 207 201 189 205 250 224 204 189 195 195 220 260 273 280 281 289 295 291
325 322 322 325 334 326 318 331 352 350 355 359 342 328 331 321 2 320 40 76 99 28 114 325 106 145 299 316 288 319 345 210 212 193 202 209 215 248 127 129 111 60 93 117 191 210 158 156 146 129 226 203 201 262 208 183 38 153 253 234 180 107 155 219 175 207 227 263 242 211 205 254 248 220 215 185 173 184 201 220 240 257 274 284 281 282 292
320 317 319 322 327 320 313 329 329 326 350 248 299 12 301 302 317 318 55 88 266 167 92 245 317 314 355 328 313 325 227 218 211 211 212 212 214 201 186 178 129 123 144 128 34 109 99 112 186 224 201 293 170 254 123 165 212 193 228 174 138 155 210 146 149 218 227 233 199 166 213 229 176 182 182 185 185 194 217 226 245 253 273 286 302 299 298
318 318 318 324 317 302 313 324 345 307 325 313 292 275 262 266 260 269 289 300 344 353 320 296 300 320 322 263 272 294 288 236 226 216 216 211 206 202 203 189 136 128 152 161 171 184 180 202 220 90 93 123 198 227 158 38 48 249 247 207 172 207 189 161 212 214 248 202 170 183 209 33 143 168 173 181 181 199 219 237 264 276 274 293 301 304 311
317 320 320 318 311 298 287 304 340 290 280 278 331 312 244 281 267 232 267 288 319 77 297 279 276 278 5 355 327 317 333 321 216 201 191 193 191 194 189 158 152 141 126 91 91 116 191 229 109 171 176 177 173 212 132 223 226 242 250 167 176 222 156 191 217 221 252 95 177 171 176 197 151 158 163 175 179 199 223 244 247 264 291 302 303 305 310
321 322 324 316 305 291 285 280 292 293 350 39 122 205 147 104 90 225 209 256 273 39 33 359 350 61 315 273 308 319 325 355 74 153 161 162 163 147 122 123 133 175 39 22 103 238 225 131 143 96 314 186 185 59 247 260 252 254 22 148 194 188 203 218 217 211 231 161 171 180 171 136 122 149 164 165 178 197 222 239 252 275 290 298 299 308 302
327 329 329 325 310 293 289 290 286 312 326 190 255 201 109 155 112 95 178 210 232 328 66 216 282 315 310 56 285 330 353 6 51 65 68 58 63 75 77 115 149 138 158 227 321 321 153 226 163 175 26 246 129 158 218 224 251 268 205 196 191 203 211 226 216 223 88 145 122 124 120 133 136 159 206 212 196 197 209 227 232 261 284 290 297 293 300
331 338 334 315 300 293 289 272 246 214 214 238 338 32 43 27 84 109 161 192 193 318 14 334 330 19 338 298 335 321 318 26 67 63 72 86 80 99 162 239 233 184 187 189 197 188 226 208 176 125 140 185 172 227 201 218 241 257 149 179 201 216 220 239 194 164 92 136 123 117 176 183 186 196 201 175 183 180 206 218 239 244 258 282 284 281 277
344 330 285 304 289 293 216 179 168 181 147 327 297 246 237 237 232 196 73 166 217 30 340 340 18 331 289 353 320 352 345 200 110 355 96 33 176 180 142 235 256 209 196 171 178 219 115 134 140 182 198 149 190 224 223 226 232 247 259 260 228 214 224 213 171 163 169 197 184 181 189 186 199 215 213 145 167 182 199 227 246 236 277 275 281 285 291
338 312 2 63 87 115 122 142 86 337 309 284 146 95 140 198 222 223 258 255 262 293 26 347 353 332 308 333 285 90 335 353 4 357 23 50 26 152 99 201 174 243 169 221 87 199 166 168 202 146 127 197 220 251 247 251 252 265 269 267 254 223 190 175 175 176 190 201 251 305 53 92 93 109 152 201 208 200 207 225 229 272 277 292 301 308 315
292 300 93 94 102 135 136 144 110 27 54 31 333 282 93 173 172 154 185 252 338 11 15 99 3 326 331 342 335 35 13 310 339 18 343 65 8 167 158 271 104 245 141 107 190 223 203 222 140 183 213 176 200 232 246 265 270 260 247 256 240 187 156 193 193 168 160 180 198 248 227 174 168 196 226 229 230 203 202 208 219 260 287 292 303 307 313
307 112 119 125 94 112 135 182 13 323 37 37 25 47 83 126 141 150 201 280 347 358 317 341 282 300 300 318 336 20 317 314 42 242 70 130 117 34 43 35 263 231 84 200 241 158 216 138 202 246 139 202 231 219 240 242 263 270 267 260 237 198 214 210 170 165 166 163 188 205 207 211 218 225 227 221 205 204 204 224 221 228 265 285 296 304 311
184 140 133 101 181 217 58 39 2 348 52 8 79 116 123 118 95 129 195 286 208 221 287 305 288 267 256 298 299 274 340 318 88 266 141 264 69 120 87 97 227 96 209 217 210 234 170 49 246 224 198 230 246 242 272 288 280 277 276 267 249 229 223 214 186 159 158 185 197 201 202 205 215 222 229 232 231 203 215 232 237 239 251 275 288 298 308
255 170 226 360 107 54 65 60 38 47 2 125 136 143 201 230 120 150 169 263 218 226 225 196 253 285 110 242 261 65 322 289 170 310 151 123 230 164 195 228 347 265 259 273 292 25 141 188 230 261 262 256 268 279 283 288 289 278 265 266 254 222 208 179 162 161 162 165 187 194 191 202 216 216 214 231 226 224 227 232 232 220 248 262 274 293 304
317 218 191 51 45 63 44 35 11 217 205 151 231 255 133 162 134 277 194 255 340 260 192 227 260 231 216 233 259 220 245 304 286 253 286 144 272 223 191 240 95 293 237 261 195 222 245 220 245 264 266 268 278 254 272 297 294 279 262 257 245 215 191 188 191 194 195 202 196 182 185 190 207 213 208 228 228 226 228 225 221 221 238 258 272 289 300
217 145 88 106 81 85 122 284 303 195 189 257 189 278 133 107 132 311 53 288 264 239 193 246 231 231 220 243 288 315 137 227 273 307 290 281 134 288 89 253 91 269 266 272 222 184 253 274 225 294 271 251 248 312 327 321 309 305 285 252 230 213 203 204 205 215 223 229 220 200 200 213 214 218 197 202 210 213 210 214 223 224 223 251 260 281 302
205 132 150 113 79 5 332 319 298 192 209 226 176 83 60 43 119 339 252 257 257 239 217 258 215 246 216 226 208 241 99 47 57 51 244 279 79 212 216 236 67 268 255 247 171 189 217 259 259 242 260 310 281 318 321 314 320 320 293 278 261 250 231 226 223 216 215 221 214 204 204 210 213 215 206 196 197 212 214 212 214 214 226 239 241 262 295
36 12 64 80 92 313 285 202 218 228 201 302 81 329 30 314 323 255 215 264 289 248 201 192 235 243 226 191 208 239 214 342 199 200 251 253 67 273 303 80 36 248 256 79 139 151 215 253 246 254 247 252 262 291 300 311 332 337 348 360 337 297 266 244 240 222 213 217 214 212 205 204 211 211 201 191 196 202 203 205 211 215 226 229 231 244 286
123 84 36 140 124 166 195 187 191 177 120 245 45 43 128 341 172 281 247 219 273 248 348 207 301 37 106 152 155 223 345 157 216 179 240 242 116 269 224 172 191 233 228 143 217 184 216 235 242 245 243 259 274 282 283 288 301 313 345 34 42 29 353 306 267 249 223 225 229 222 209 204 211 207 195 194 194 195 203 209 212 221 222 222 234 246 271
135 190 162 137 140 127 184 318 208 76 329 248 162 99 193 226 225 182 260 231 186 244 201 215 195 235 300 156 276 145 168 155 126 151 143 124 231 205 233 240 227 94 116 214 216 227 246 254 247 265 302 299 272 267 282 301 313 309 302 91 329 349 13 336 317 265 220 197 219 235 251 244 229 196 188 197 197 201 197 195 205 222 213 216 219 216 217
163 48 21 155 217 221 64 310 314 132 238 180 201 221 131 360 303 204 260 88 196 224 104 207 172 205 271 110 189 166 266 184 85 244 267 226 230 197 224 268 132 181 237 264 249 270 252 255 246 243 288 302 318 329 332 323 333 331 330 310 314 324 314 273 280 275 255 242 108 57 353 280 235 232 208 200 198 200 195 191 183 194 200 210 225 217 185
171 161 123 108 275 279 176 234 92 233 223 191 203 189 151 192 243 250 228 155 237 235 240 236 195 224 255 166 287 268 166 178 207 187 200 184 269 266 188 97 144 251 229 227 238 240 269 356 31 4 350 340 337 345 345 341 339 337 331 333 330 320 294 258 259 260 228 205 178 172 191 222 228 220 218 209 195 188 191 181 169 183 186 195 190 177 149
102 44 95 118 137 225 134 239 213 224 48 182 216 154 195 235 241 276 291 190 247 254 305 86 243 261 277 166 185 171 173 199 243 147 215 235 246 164 127 268 258 212 229 238 242 277 354 29 358 354 350 345 348 357 8 2 343 350 352 346 340 338 334 330 322 314 291 254 266 265 225 205 217 222 221 196 193 189 185 173 180 183 184 189 173 161 155
185 252 129 225 244 190 201 235 359 287 224 232 140 179 233 346 305 277 242 212 255 281 234 200 216 164 198 106 271 308 117 192 252 201 214 290 9 280 287 239 254 253 233 260 311 15 352 331 330 335 323 303 304 336 9 356 341 336 335 328 325 326 331 332 333 330 317 280 256 256 250 230 216 193 161 208 225 201 194 188 188 182 179 173 168 171 168
106 138 180 218 224 221 246 48 353 296 69 208 165 207 229 245 260 255 245 157 205 222 231 242 146 141 304 86 264 192 205 147 245 230 156 213 239 265 254 284 298 291 16 19 1 344 333 329 329 328 327 319 337 354 334 315 309 309 312 315 317 317 318 321 327 332 330 320 308 292 281 266 230 206 196 187 183 201 201 183 178 175 178 176 173 170 168
84 336 36 149 264 239 233 280 256 261 246 360 338 240 220 254 259 255 150 165 128 132 114 84 102 279 27 313 247 239 243 178 243 127 232 268 275 295 259 286 295 308 15 5 306 314 330 331 335 329 343 339 338 337 330 325 327 321 317 316 316 319 319 322 324 329 331 323 314 307 300 291 268 230 202 203 205 195 178 179 177 177 177 181 175 174 173
18 147 260 230 245 301 121 251 311 311 317 360 299 295 290 271 265 286 135 137 141 174 143 288 40 37 239 127 37 314 76 116 239 255 281 311 41 268 297 300 348 33 297 273 292 301 309 330 327 323 335 333 335 337 325 319 318 318 315 317 324 324 321 318 321 323 323 316 309 304 301 288 277 260 236 213 187 159 163 171 176 178 180 179 177 176 170
109 227 252 223 227 249 250 342 280 245 242 277 265 247 203 244 236 216 121 160 147 294 327 125 199 91 69 313 299 338 116 207 256 236 292 326 172 298 319 333 344 335 315 327 349 327 334 330 325 329 337 332 335 332 321 315 317 313 320 327 330 329 324 321 319 318 317 310 303 295 284 277 271 255 233 212 191 177 164 172 175 181 181 177 173 170 162